Probability
0 0 0 0 0 0 0 0 0 0 0 0 0 0 1 3 6 10 13 19 23 22 21 19 16 16 18 17 14 15 15 12 9 5 3 2 1 0 0 0 0 1 1 1
0 0 0 0 0 0 0 0 0 0 0 0 0 0 0 1 4 8 12 17 19 19 17 16 15 15 16 14 12 11 11 9 7 5 3 2 1 1 0 0 1 2 2 2
0 0 0 0 0 0 0 0 0 0 0 0 0 0 0 0 1 4 8 11 13 13 11 13 14 14 13 13 11 9 8 8 6 4 3 3 3 3 1 1 1 2 2 1
0 0 0 0 0 0 0 0 0 0 0 0 0 0 0 0 0 1 3 6 7 7 7 10 13 12 12 14 13 10 9 9 7 4 4 4 5 4 3 2 1 1 1 0
0 0 0 0 0 0 0 0 0 0 0 0 0 0 0 0 0 0 1 4 5 3 4 6 8 9 11 14 15 12 11 10 7 4 4 4 3 4 4 2 0 0 0 0
0 0 0 0 0 0 0 0 0 0 0 0 0 0 0 0 0 0 0 2 3 2 2 2 3 4 7 11 14 14 13 12 9 5 4 3 1 2 3 2 0 0 0 0
0 0 0 0 0 0 0 0 0 0 0 0 0 0 0 0 0 0 0 1 1 1 1 1 1 2 3 7 12 14 14 13 10 6 4 1 0 1 1 1 0 0 0 0
0 0 0 0 0 0 0 0 0 0 0 0 0 0 0 0 0 0 1 1 1 1 1 2 2 2 2 4 7 11 12 10 8 6 3 1 0 0 0 0 0 0 0 0
0 0 0 0 0 0 0 0 0 0 0 0 0 0 0 0 0 0 1 1 1 0 2 3 3 3 3 3 4 6 7 6 5 5 3 1 0 0 0 0 0 0 0 0
0 0 0 0 0 0 0 0 0 0 0 0 0 0 0 0 0 0 0 0 0 0 2 3 4 4 4 3 2 3 4 4 2 2 2 1 0 0 0 0 0 0 0 0
0 0 0 0 0 0 0 0 0 0 0 0 0 0 0 0 0 0 0 0 0 0 2 3 4 4 3 3 1 2 3 3 1 1 1 1 0 0 0 0 0 0 0 0
0 0 0 0 0 0 0 0 0 0 0 0 0 0 0 0 0 0 0 0 0 0 1 2 4 4 4 3 1 2 3 3 1 0 0 0 0 0 0 0 0 0 0 0
0 0 0 0 0 0 0 0 0 0 0 0 0 0 0 0 0 0 0 0 0 0 0 1 3 5 5 3 2 2 3 3 2 1 0 0 0 0 1 1 0 0 0 0
0 0 0 0 0 0 0 0 0 0 0 0 0 0 0 0 0 0 0 0 0 1 1 1 3 4 4 3 3 3 3 3 3 2 1 0 0 0 1 1 0 0 0 0
0 0 0 0 0 0 0 0 0 0 0 0 0 0 0 0 0 0 1 1 1 1 1 2 4 3 2 3 3 3 3 3 4 4 3 1 1 0 1 1 0 0 0 0
0 0 0 0 0 0 0 0 0 1 1 0 0 0 1 1 1 1 1 2 1 0 0 2 3 2 1 2 2 3 3 4 5 6 5 4 3 2 1 1 0 0 0 0
0 0 0 0 0 0 0 0 1 2 2 1 1 1 2 2 2 2 2 1 1 0 0 0 1 2 2 1 1 2 3 5 6 7 7 6 5 4 4 3 1 0 0 0
0 0 0 0 0 0 0 0 1 2 3 3 5 6 6 4 2 3 2 1 0 0 0 0 0 1 1 1 0 1 3 4 5 6 7 6 5 5 5 4 2 1 0 0
0 0 0 0 0 0 0 0 1 2 3 4 8 12 10 6 3 2 1 1 0 0 0 0 0 0 0 0 0 1 3 5 4 5 6 5 4 5 5 4 3 1 0 0
0 0 0 0 0 0 0 0 0 1 3 4 7 9 8 4 2 1 0 0 0 0 0 0 0 0 0 0 0 1 3 4 4 5 5 4 4 5 6 6 3 1 0 0
0 0 0 0 0 0 0 0 0 0 1 2 3 3 2 1 1 0 0 0 0 0 0 0 0 0 0 0 0 0 1 2 3 4 4 4 5 6 7 7 3 1 0 0
0 0 0 0 0 0 0 0 0 0 0 0 1 1 0 0 0 0 0 0 0 0 0 0 0 0 0 0 0 0 0 0 1 2 4 5 6 6 7 5 3 1 0 0
0 0 0 0 0 0 0 0 0 0 0 0 0 0 0 0 0 0 0 0 0 0 0 0 0 0 0 0 0 0 0 0 0 1 3 5 6 5 5 4 2 1 0 0
0 0 0 0 0 0 0 0 0 0 0 0 0 0 0 0 0 0 0 0 0 0 0 0 0 0 0 0 0 0 0 0 0 1 2 3 3 3 3 2 2 1 0 0
0 0 0 0 0 0 0 0 0 0 0 0 0 0 0 0 0 0 0 0 0 0 0 0 0 0 0 0 0 0 0 0 0 0 1 1 1 1 1 1 1 0 0 0
0 0 0 0 0 0 0 0 0 0 0 0 0 0 0 0 0 0 0 0 0 0 0 0 0 0 0 0 0 0 0 0 0 0 0 0 0 0 0 0 0 0 0 0
Wind_Speed
3 4 4 7 6 5 2 3 7 9 6 4 5 5 4 1 3 5 5 6 6 6 5 6 6 7 8 8 9 10 8 7 7 5 5 4 4 3 3 3 5 6 5 6
3 4 8 5 4 3 3 4 7 9 4 2 3 4 3 1 2 4 6 7 7 5 5 6 6 7 8 9 8 8 8 8 8 6 5 3 3 2 2 2 3 5 6 6
8 6 4 6 4 4 4 5 6 7 7 4 2 6 3 2 1 1 2 4 5 7 8 7 7 8 8 9 10 9 9 9 8 7 4 4 3 2 2 2 2 3 5 5
6 6 4 4 5 6 6 6 7 5 2 5 2 4 7 2 2 1 2 3 5 6 6 6 7 7 8 9 8 9 9 9 9 8 8 9 6 5 5 4 3 3 4 5
8 5 6 7 8 9 8 3 2 2 2 2 2 2 8 2 3 4 4 4 4 5 6 6 6 6 6 7 8 9 9 8 8 8 9 9 6 4 3 3 4 3 3 4
6 4 6 8 6 7 4 4 5 5 5 1 3 2 7 4 5 4 4 4 5 5 5 4 4 4 4 5 6 7 8 8 8 8 8 9 9 7 7 6 5 4 2 2
4 5 5 5 2 0 4 5 4 5 4 5 2 2 9 6 5 5 5 5 5 5 5 5 5 5 5 6 7 7 8 7 7 8 8 8 9 9 9 7 7 5 4 3
4 7 5 6 9 7 6 10 8 5 5 5 2 5 8 5 3 3 3 4 5 6 6 6 6 6 6 6 7 7 8 7 7 7 7 6 7 6 5 6 6 6 4 4
7 7 5 4 5 10 7 5 7 8 3 1 5 7 9 3 2 1 2 4 5 6 7 6 6 6 6 6 6 7 7 6 6 7 6 6 6 6 6 6 5 4 4 4
10 5 5 3 3 1 6 9 6 7 6 3 4 4 6 6 5 3 3 4 4 4 5 5 5 5 5 5 5 5 6 6 6 6 6 6 6 6 6 5 6 5 5 4
7 6 5 2 3 5 4 4 5 5 6 7 3 8 7 7 5 4 4 4 5 5 6 5 5 5 5 5 5 5 5 5 5 5 5 6 6 6 6 6 6 6 5 6
6 6 4 6 4 3 5 8 9 7 5 5 5 9 5 4 3 3 3 3 4 4 4 5 6 6 5 5 5 5 4 5 5 5 5 6 6 6 6 6 6 6 6 6
7 7 2 6 5 1 2 4 5 6 7 5 5 8 3 1 1 1 3 3 4 4 4 4 5 5 5 5 5 5 5 5 5 5 6 6 6 6 6 6 5 5 6 6
7 5 7 9 9 5 3 4 5 7 6 6 7 7 5 4 3 2 2 3 4 5 5 5 5 5 4 4 5 5 5 5 5 6 6 6 6 6 6 6 6 6 6 6
5 4 4 5 4 4 4 5 7 5 8 9 8 8 8 6 4 3 2 2 4 4 4 5 6 5 4 4 4 4 4 4 5 6 6 6 6 6 6 6 6 6 6 6
3 3 1 1 1 3 2 3 5 4 5 4 3 6 4 1 1 1 2 2 3 4 4 5 5 5 5 5 5 4 4 4 5 6 6 6 6 7 7 7 7 7 7 6
3 4 4 2 2 2 3 4 5 4 3 6 8 7 3 2 2 1 1 2 2 2 3 4 5 5 5 5 5 6 5 4 5 5 6 6 7 7 7 8 9 9 8 8
6 5 4 2 2 5 7 2 4 5 1 1 2 2 3 4 3 2 2 1 1 1 1 2 2 3 3 4 4 4 5 5 6 6 6 7 8 8 8 9 9 8 8 8
4 7 5 4 4 3 3 1 3 5 0 1 4 5 4 4 3 3 3 2 1 1 1 1 1 2 3 4 5 5 5 5 6 6 6 7 8 10 10 10 9 8 9 9
5 4 6 4 4 7 7 2 1 5 1 2 4 6 5 4 2 2 1 2 2 2 2 1 2 2 3 3 5 6 6 6 6 6 7 7 9 10 10 10 10 9 9 10
3 4 4 4 4 6 3 3 1 5 7 4 5 5 5 4 3 2 2 2 2 2 3 2 3 2 2 3 6 6 6 6 6 7 8 9 9 11 11 11 9 10 10 11
4 4 3 4 4 6 2 1 4 5 1 3 3 3 3 3 2 2 2 2 3 3 3 3 3 3 2 4 6 7 6 6 8 9 10 10 10 10 11 12 11 10 11 12
3 5 5 6 6 3 1 1 1 0 2 2 2 2 3 2 2 1 1 2 2 2 2 2 3 4 4 4 5 7 6 8 10 11 11 11 11 10 10 11 12 10 8 8
2 2 3 2 3 1 1 1 2 2 2 2 1 1 2 2 2 1 1 1 1 2 2 2 4 4 4 5 6 7 7 9 11 12 12 11 12 12 10 8 8 9 8 8
4 3 2 2 2 0 1 0 1 2 3 3 2 1 1 3 2 2 1 1 2 2 2 3 4 5 6 6 7 8 8 10 12 12 12 12 11 12 11 10 8 8 6 7
4 5 6 6 5 5 3 2 1 2 2 1 2 1 1 2 3 3 3 2 3 3 4 5 6 7 7 8 9 8 8 10 13 12 11 10 10 10 10 11 12 16 13 15
Wind_Direction
130 106 196 208 194 197 215 266 282 278 289 306 299 295 291 217 157 163 170 176 184 194 178 165 170 173 168 167 170 169 169 166 158 162 168 170 179 174 173 179 178 173 168 165
76 241 224 203 194 199 224 275 285 296 326 324 303 303 295 213 192 188 184 188 189 183 169 172 172 175 176 176 173 169 167 170 174 177 174 162 145 157 169 169 169 170 165 165
185 226 189 177 202 219 245 228 253 273 322 351 358 323 307 326 3 136 178 188 183 186 185 181 183 187 182 181 177 176 173 174 177 173 152 131 112 101 131 162 168 173 165 162
219 240 207 209 222 193 259 231 225 259 311 302 25 291 293 311 316 236 210 189 189 190 186 186 188 189 187 185 177 174 176 174 177 175 170 169 172 176 186 172 166 160 159 160
223 209 191 214 224 186 222 221 214 255 201 301 339 199 285 316 271 247 228 208 197 194 188 190 191 189 186 176 175 175 172 173 175 176 177 177 174 172 157 148 150 153 154 162
230 220 199 207 216 191 197 64 48 48 73 337 268 188 278 256 240 250 230 208 197 191 181 178 175 160 158 161 162 162 165 175 177 178 178 177 171 165 160 162 165 162 155 155
283 264 231 191 209 249 132 91 24 358 12 255 279 225 253 256 242 230 226 217 193 181 172 166 163 160 159 161 164 162 165 175 177 179 180 179 176 171 173 173 171 165 165 169
218 279 241 195 190 188 176 147 160 193 219 272 317 245 258 265 265 247 208 192 178 172 170 172 174 168 166 165 166 168 171 175 176 180 182 179 174 169 171 173 167 171 176 175
187 252 279 226 191 154 146 180 165 134 153 273 287 288 301 278 286 278 169 167 181 179 174 174 170 163 161 163 169 174 172 169 173 179 177 175 169 163 167 166 161 162 166 164
163 231 282 287 112 105 145 145 111 127 148 217 283 280 261 276 266 247 196 190 197 183 174 171 168 163 157 156 159 162 165 169 172 173 175 175 169 164 162 160 165 165 164 154
153 187 283 3 175 179 122 121 116 118 148 155 217 264 230 236 242 217 198 193 186 181 173 165 160 155 146 145 150 155 155 152 159 167 166 162 162 158 157 163 167 164 158 155
159 142 239 257 251 193 168 167 148 151 189 166 168 259 272 245 247 192 172 181 180 171 166 161 156 145 144 145 147 153 155 155 158 155 153 156 152 151 156 161 162 156 152 152
140 125 98 338 333 336 144 154 151 125 117 145 163 256 294 338 316 198 163 165 165 153 149 149 148 149 152 152 156 158 161 165 159 152 151 153 154 154 158 156 151 146 140 136
120 125 164 195 215 200 188 168 153 127 139 178 209 234 271 266 255 241 197 172 159 155 156 156 158 160 162 164 164 163 166 164 161 157 156 160 162 158 153 147 141 138 134 130
112 147 207 232 230 184 194 185 171 167 171 172 212 214 237 238 233 224 194 152 145 149 154 163 164 163 162 165 164 161 164 162 160 158 162 166 160 151 144 140 134 129 128 130
90 133 135 314 295 183 185 193 175 171 166 178 173 233 252 257 144 157 157 151 158 154 161 168 163 166 171 171 170 164 166 164 157 160 162 154 151 147 142 137 129 120 114 112
107 123 116 242 310 90 223 216 182 174 183 167 186 215 168 130 121 156 173 162 168 151 145 164 172 177 182 179 173 171 165 156 152 151 148 149 150 143 137 130 120 117 113 106
132 116 128 156 127 205 244 275 155 129 104 199 167 137 137 130 105 65 58 108 87 95 120 153 169 174 175 169 167 160 149 154 155 150 145 140 136 130 123 119 117 114 110 108
142 134 125 135 173 238 275 232 158 136 202 258 142 128 115 120 80 27 28 64 77 82 93 153 159 161 159 163 159 150 148 150 150 148 144 140 137 131 127 123 120 115 111 105
61 97 119 134 161 212 232 274 193 107 241 223 153 149 148 127 108 263 13 53 55 55 62 75 96 109 143 156 146 143 148 147 153 149 141 134 130 127 126 122 118 111 108 106
59 62 121 154 196 247 256 299 97 163 225 190 158 155 151 160 184 181 97 66 57 60 59 74 93 104 130 141 142 144 144 150 140 125 121 119 118 119 119 115 114 113 109 104
159 145 165 146 178 239 306 47 181 210 191 123 143 144 140 141 121 97 77 60 47 51 52 72 87 84 92 126 138 140 144 136 123 119 116 114 114 117 119 117 112 109 109 106
187 185 182 186 206 242 324 220 321 111 114 113 126 122 127 135 151 126 85 58 42 54 59 70 88 86 79 95 125 131 127 121 119 116 112 110 106 105 112 116 116 109 104 105
254 152 144 227 250 251 352 20 24 47 83 84 105 137 150 174 181 150 116 85 63 58 75 90 97 94 87 89 97 106 112 115 115 113 110 109 107 102 98 98 104 109 111 111
223 166 165 238 237 143 271 204 72 62 70 70 56 64 166 157 165 162 145 121 99 84 84 98 105 106 98 95 96 101 109 113 110 107 107 106 105 107 98 85 78 91 88 113
207 179 178 214 209 182 200 171 135 98 73 78 87 51 62 135 141 128 121 110 99 94 95 101 99 99 99 100 97 98 106 112 111 107 105 105 107 107 106 103 85 65 80 86